Weather observations for the past three days for
Sherman/Denison, Grayson County Airport
Imperial (Metric)
Date Time (cdt) Wind (mph) Vis. (mi.) Weather Sky Cond. Temperature (ºF) Relative Humidity Wind Chill (°F) Heat Index (°F) Pressure Precipitation (in)
Air Dwpt 6 hour altimeter (in) sea level (mb) 1 hr 3 hr 6 hr
Max. Min.
03 23:15 S 10 10.00 Fair CLR 62.6 47.7 58% 29.99 0.0
03 22:55 S 10 10.00 Fair CLR 63.5 47.3 56% 30 0.0
03 22:35 S 12 10.00 Fair CLR 63.7 47.1 55% 30 0.0
03 22:15 S 10 10.00 Fair CLR 65.1 46.8 52% 29.99 0.0
03 21:55 S 10 10.00 Fair CLR 64.6 47.3 54% 29.99 0.0
03 21:35 S 10 10.00 Fair CLR 64.8 47.3 53% 29.99 0.0
03 21:15 S 10 10.00 Fair CLR 65.3 47.5 53% 29.99 0.0
03 20:55 S 8 10.00 Fair CLR 64.6 47.8 55% 29.98 0.0
03 20:35 S 9 10.00 Fair CLR 65.5 47.7 53% 29.98 0.0
03 20:15 S 7 10.00 Fair CLR 67.6 47.8 49% 29.98 0.0
03 19:55 S 9 10.00 Fair CLR 72.3 47.8 42% 29.98 0.0
03 19:35 S 8 10.00 Fair CLR 74.3 48.2 40% 29.98 0.0
03 19:15 SW 8 10.00 Fair CLR 75.9 47.8 37% 78 29.98 0.0
03 18:50 SW 9 10.00 Fair CLR 77 46.4 34% 78 29.98 0.0
03 17:50 SW 12 10.00 Fair CLR 78.8 48.2 34% 79 30 0.0
03 16:50 SW 17 10.00 Fair CLR 80.6 46.4 30% 80 30.01 0.0
03 15:50 SW 14 G 20 10.00 Fair CLR 80.6 48.2 32% 80 30.04 0.0
03 14:50 SW 15 G 23 10.00 A Few Clouds FEW080 82.4 50 32% 81 30.07 0.0
03 12:50 SW 12 10.00 Fair CLR 77 53.6 44% 78 30.14 0.0
03 11:50 SW 12 10.00 Fair CLR 77 53.6 44% 78 30.14 0.0
03 10:50 SW 16 10.00 Fair CLR 73.4 51.8 47% 30.15 0.0
03 09:50 SW 14 10.00 Fair CLR 69.8 51.8 53% 30.15 0.0
03 08:50 SW 12 10.00 Fair CLR 64.4 50 60% 30.14 0.0
03 07:50 SW 12 10.00 Fair CLR 60.8 50 68% 30.14 0.0
03 06:35 SW 10 9.00 Fair CLR 57.4 48 71% 30.12 0.0
03 06:15 SW 10 10.00 Fair CLR 57 48 72% 30.12 0.0
03 05:55 SW 10 10.00 Fair CLR 57.4 48 71% 30.12 0.0
03 05:35 SW 10 10.00 Fair CLR 57.2 48.4 73% 30.12 0.0
03 05:15 SW 8 9.00 Fair CLR 56.7 48.7 75% 30.12 0.0
03 04:55 SW 9 10.00 Fair CLR 55.8 48.7 77% 30.12 0.0
03 04:35 SW 8 5.00 Fair with Haze CLR 55.8 48.6 77% 30.12 0.0
03 04:15 S 5 2.00 Fair with Haze CLR 55.6 47.8 75% 30.12 0.0
03 03:55 SW 5 1.75 Fair with Haze CLR 55.4 47.5 75% 30.12 0.0
03 03:35 SW 3 2.00 Fair with Haze CLR 55.9 46.9 72% 30.12 0.0
03 03:15 S 7 1.50 Fair with Haze CLR 56.3 46.4 70% 30.12 0.0
03 02:55 S 8 1.50 Fair with Haze CLR 55 46.8 74% 30.12 0.0
03 02:35 S 9 1.50 Fair with Haze CLR 54.7 46.9 75% 30.12 0.0
03 02:15 S 8 1.75 Fair with Haze CLR 55.6 47.3 74% 30.13 0.0
03 01:55 S 7 2.00 Fair with Haze CLR 56.3 47.7 73% 30.13 0.0
03 01:35 S 7 2.50 Fair with Haze CLR 57.2 48 72% 30.13 0.0
03 01:15 S 7 3.00 Fair with Haze CLR 57.7 48.4 71% 30.13 0.0
03 00:55 S 7 2.50 Fair with Haze CLR 60.4 47.8 72.9 57.7 63% 30.12 0.0
03 00:35 S 7 2.50 Fair with Haze CLR 60.4 47.8 63% 30.12 0.0
03 00:15 S 7 2.00 Fair with Haze CLR 60.4 47.7 63% 30.12 0.0
02 23:55 S 7 2.00 Fair with Haze CLR 58.1 48.9 72% 30.12 0.0
02 23:35 S 8 2.50 Fair with Haze CLR 59.5 48.6 67% 30.12 0.0
02 23:15 S 7 2.50 Fair with Haze CLR 59.4 48.6 68% 30.12 0.0
02 22:55 S 7 2.50 Fair with Haze CLR 60.6 48.9 66% 30.12 0.0
02 22:35 S 7 3.00 Fair with Haze CLR 61.7 48.9 63% 30.12 0.0
02 22:15 S 7 4.00 Fair with Haze CLR 62.4 49.1 62% 30.11 0.0
02 21:55 S 7 4.00 Fair with Haze CLR 62.8 49.3 62% 30.11 0.0
02 21:35 S 6 4.00 Fair with Haze CLR 63 49.3 61% 30.11 0.0
02 21:15 S 6 4.00 Fair with Haze CLR 64.8 48.7 56% 30.1 0.0
02 20:55 S 6 4.00 Fair with Haze CLR 64.8 49.6 58% 30.1 0.0
02 20:35 S 6 6.00 Fair with Haze CLR 66 49.8 56% 30.09 0.0
02 20:15 SE 5 7.00 Fair CLR 66.7 51.3 58% 30.09 0.0
02 19:55 NE 3 10.00 A Few Clouds FEW110 69.8 51.4 52% 30.08 0.0
02 19:35 Calm 10.00 Partly Cloudy SCT100 71.1 48.7 45% 30.08 0.0
02 19:15 Calm 10.00 Overcast OVC100 72.9 48 41% 30.08 0.0
02 18:50 Calm 10.00 Partly Cloudy SCT110 73.4 46.4 38% 30.09 0.0
02 17:25 Calm 10.00 Partly Cloudy SCT110 73.4 46.4 38% 30.09 0.0
02 16:50 Vrbl 6 10.00 Partly Cloudy SCT110 73.4 46.4 38% 30.1 0.0
02 15:50 W 5 10.00 Fair CLR 75.2 46.4 36% 77 30.13 0.0
02 14:50 W 7 10.00 Fair CLR 73.4 44.6 36% 30.15 0.0
02 13:50 W 9 10.00 Fair CLR 73.4 46.4 38% 30.16 0.0
02 12:50 Vrbl 3 10.00 Fair CLR 71.6 37.4 29% 30.19 0.0
02 11:50 Vrbl 3 10.00 Fair CLR 69.8 42.8 38% 30.2 0.0
02 10:50 NW 3 9.00 Fair CLR 66.2 44.6 46% 30.2 0.0
02 09:50 Vrbl 3 10.00 Fair CLR 62.6 46.4 56% 30.2 0.0
02 08:50 Calm 10.00 Fair CLR 57.2 51.8 82% 30.19 0.0
02 07:50 Calm 10.00 Fair CLR 50 48.2 94% 30.17 0.0
02 06:50 Calm 10.00 Fair CLR 44.6 42.8 93% 30.15 0.0
02 06:35 Calm 3.00 Fog/Mist CLR 45 43.2 93% 30.14 0.0
02 06:15 Calm 4.00 Fog/Mist CLR 44.8 43.2 94% 30.14 0.0
02 05:55 Calm 4.00 Fog/Mist CLR 44.8 43.3 95% 30.13 0.0
02 05:35 Calm 4.00 Fog/Mist CLR 44.8 42.8 93% 30.12 0.0
02 05:15 Calm 4.00 Fog/Mist CLR 48 44.2 87% 30.11 0.0
02 04:55 Calm 4.00 Fog/Mist SCT180 48 44.4 87% 30.11 0.0
02 04:35 Calm 4.00 Fog/Mist BKN180 46.9 44.2 90% 30.11 0.0
02 04:15 Calm 4.00 Fog/Mist BKN180 46.4 43.3 89% 30.11 0.0
02 03:55 Calm 4.00 Fog/Mist SCT180 46.9 44.2 90% 30.11 0.0
02 03:35 Calm 5.00 Fog/Mist CLR 47.3 44.4 90% 30.11 0.0
02 03:15 Calm 6.00 Fog/Mist CLR 47.8 44.6 89% 30.11 0.0
02 02:55 Calm 6.00 Fog/Mist CLR 47.3 45 92% 30.11 0.0
02 02:35 SW 5 6.00 Fog/Mist CLR 47.3 44.8 91% 46 30.11 0.0
02 02:15 SW 5 6.00 Fog/Mist CLR 47.7 44.6 89% 46 30.11 0.0
02 01:55 Calm 6.00 Fair with Haze CLR 49.5 45 85% 30.11 0.0
02 01:35 Calm 6.00 Fair with Haze CLR 53.2 44.1 71% 30.11 0.0
02 01:15 Calm 6.00 Fair with Haze CLR 53.4 44.4 72% 30.11 0.0
02 00:55 Calm 7.00 Fair CLR 53.1 43.7 64.9 51.6 71% 30.11 0.0
02 00:35 Calm 7.00 Fair CLR 54.3 42.6 65% 30.11 0.0
02 00:15 Calm 7.00 Fair CLR 54.9 42.8 64% 30.11 0.0
01 23:55 E 3 8.00 Fair CLR 56.7 44.1 63% 30.11 0.0
01 23:35 E 5 8.00 Fair CLR 55.9 45 67% 30.1 0.0
01 23:15 E 5 8.00 A Few Clouds FEW230 56.7 47.3 71% 30.1 0.0
01 22:55 Calm 10.00 A Few Clouds FEW070 58.6 46.8 65% 30.1 0.0
01 22:35 E 3 9.00 Partly Cloudy SCT070 58.1 46.9 67% 30.1 0.0
01 22:15 NE 6 9.00 Mostly Cloudy SCT070 BKN160 BKN200 57.9 47.1 67% 30.1 0.0
01 21:55 NE 6 9.00 Overcast SCT070 OVC160 59.5 47.5 65% 30.1 0.0
01 21:35 NE 6 10.00 Overcast OVC070 60.6 47.8 63% 30.09 0.0
01 21:15 NE 6 10.00 Overcast BKN070 OVC130 61.5 47.5 60% 30.08 0.0
01 20:55 NE 6 10.00 Overcast OVC065 62.1 47.7 59% 30.07 0.0
01 20:35 NE 5 10.00 Overcast OVC065 61.9 49.1 63% 30.06 0.0
01 20:15 NE 5 9.00 Overcast OVC065 62.1 49.3 63% 30.05 0.0
01 19:55 NE 5 6.00 Overcast with Haze OVC065 63.3 50.9 64% 30.04 0.0
01 19:35 Calm 6.00 Overcast with Haze OVC060 64 51.3 63% 30.03 0.0
01 19:15 Calm 5.00 Overcast with Haze OVC060 64.6 50.9 61% 30.02 0.0
01 18:50 Calm 10.00 Overcast OVC055 66.2 51.8 60% 30.01 0.0
01 17:50 NE 5 10.00 Mostly Cloudy BKN070 66.2 51.8 60% 29.99 0.0
01 16:50 E 3 10.00 Mostly Cloudy BKN060 BKN110 68 50 53% 29.98 0.0
01 15:50 NE 6 10.00 Mostly Cloudy FEW047 BKN110 68 50 53% 30.01 0.0
01 14:50 NE 12 G 17 10.00 Mostly Cloudy SCT050 BKN100 66.2 48.2 52% 30.01 0.0
01 13:50 E 13 10.00 A Few Clouds FEW044 66.2 48.2 52% 30.03 0.0
01 12:50 E 14 10.00 Mostly Cloudy BKN100 66.2 50 56% 30.06 0.0
01 11:50 E 14 10.00 Overcast OVC100 62.6 50 64% 30.08 0.0
01 10:50 NE 9 10.00 Overcast OVC100 62.6 51.8 68% 30.08 0.0
01 08:50 Calm 10.00 NULL NULL 55.4 48.2 77% 30.06 0.0
01 07:50 Calm 10.00 NULL NULL 55.4 48.2 77% 30.06 0.0
01 06:50 NE 5 10.00 Overcast OVC090 53.6 51.8 94% 30.04 0.0
01 06:35 NE 5 10.00 Overcast OVC090 54.1 50.9 89% 30.03 0.0
01 06:15 N 3 10.00 Overcast OVC090 54.3 52 92% 30.04 0.0
01 05:55 N 3 10.00 Overcast OVC085 54.3 52.3 93% 30.03 0.0
01 05:35 NE 3 10.00 Mostly Cloudy BKN085 BKN170 54.1 52.2 93% 30.03 0.0
01 05:15 NE 3 10.00 Mostly Cloudy FEW085 SCT100 BKN170 54 52.5 95% 30.03 0.0
01 04:55 NE 5 10.00 Overcast OVC080 54.5 52.7 94% 30.03 0.0
01 04:35 NE 3 10.00 Overcast OVC080 54.7 52.7 93% 30.03 0.0
01 04:15 NE 3 10.00 Overcast OVC075 55.2 52.9 92% 30.02 0.0
01 03:55 Calm 10.00 Overcast OVC075 55.2 52.7 91% 30.01 0.0
01 03:35 NE 5 10.00 Overcast OVC070 55.2 53.1 92% 30.01 0.0
01 03:15 NE 5 10.00 Overcast OVC070 55.4 53.8 94% 30.01 0.0
01 02:55 Calm 10.00 Overcast OVC065 56.1 52.7 88% 30.03 0.0
01 02:35 Calm 10.00 Overcast OVC065 56.5 53.2 89% 30.04 0.0
01 02:15 Calm 10.00 Overcast FEW041 OVC065 55.9 52.9 90% 30.04 0.0
01 01:55 NE 3 10.00 Overcast OVC060 55.9 53.1 90% 30.04 0.0
01 01:35 NE 3 10.00 Overcast OVC060 56.1 53.1 90% 30.04 0.0
01 01:15 NE 6 10.00 Overcast OVC055 56.5 52.5 87% 30.05 0.0
01 00:55 E 5 10.00 Overcast OVC060 57.7 51.6 62.1 57 80% 30.05 0.0 0.01
01 00:35 E 5 10.00 Overcast OVC060 57 52.2 84% 30.04 0.0
01 00:15 NE 5 10.00 Overcast OVC055 57.4 53.2 86% 30.05 0.0
30 23:55 NE 3 10.00 Overcast OVC050 57.9 55.8 93% 30.04 0.0
30 23:35 E 5 9.00 Overcast OVC050 58.8 55.2 88% 30.04 0.0
Date Time (cdt) Wind (mph) Vis. (mi.) Weather Sky Cond. Air Dwpt Max. Min. Relative Humidity Wind Chill (°F) Heat Index (°F) altimeter (in) sea level (mb) 1 hr 3 hr 6 hr
6 hour
Temperature (ºF) Pressure Precipitation (in)